| time (UTC) | temp C | wind direction | speed KPH | gust KPH | rain 1hr cm | rain 24hr cm | rain mn cm | humidity % | barometer mb |
| 20260509034512 | 22 | 182 | 1.6 | 8.0 | 0.00 | 0.00 | 0.00 | 88 | 1010.9 |
| 20260509033012 | 22 | 134 | 3.2 | 6.4 | 0.00 | 0.00 | 0.00 | 88 | 1010.9 |
| 20260509031520 | 22 | 144 | 1.6 | 4.8 | 0.00 | 0.00 | 0.00 | 88 | 1010.7 |
| 20260509030014 | 22 | 132 | 6.4 | 9.7 | 0.00 | 0.00 | 0.00 | 88 | 1010.3 |
| 20260509024511 | 22 | 148 | 4.8 | 9.7 | 0.00 | 0.00 | 0.00 | 87 | 1010.3 |
| 20260509023016 | 22 | 157 | 3.2 | 8.0 | 0.00 | 0.00 | 0.00 | 87 | 1010.3 |
| 20260509021509 | 22 | 160 | 1.6 | 6.4 | 0.00 | 0.00 | 0.00 | 87 | 1010.2 |
| 20260509020011 | 22 | 136 | 3.2 | 9.7 | 0.00 | 0.00 | 0.00 | 86 | 1009.7 |
| 20260509014507 | 22 | 141 | 3.2 | 11.3 | 0.00 | 0.00 | 0.00 | 85 | 1009.4 |
| 20260509013007 | 23 | 128 | 6.4 | 11.3 | 0.00 | 0.00 | 0.00 | 84 | 1009.4 |
| 20260509011606 | 23 | 137 | 1.6 | 6.4 | 0.00 | 0.00 | 0.00 | 82 | 1009.5 |
| 20260509010005 | 23 | 147 | 4.8 | 12.9 | 0.00 | 0.00 | 0.00 | 81 | 1009.5 |
| 20260509004512 | 23 | 138 | 4.8 | 11.3 | 0.00 | 0.00 | 0.00 | 80 | 1009.3 |
| 20260509003006 | 23 | 165 | 3.2 | 11.3 | 0.00 | 0.00 | 0.00 | 79 | 1009.3 |
| 20260509001507 | 24 | 146 | 3.2 | 8.0 | 0.00 | 0.00 | 0.00 | 78 | 1009.4 |
| 20260509000002 | 24 | 191 | 4.8 | 14.5 | 0.00 | 0.00 | 0.00 | 78 | 1009.4 |
| 20260508234501 | 24 | 139 | 6.4 | 12.9 | 0.00 | 0.00 | 0.00 | 77 | 1009.4 |
| 20260508233104 | 24 | 169 | 6.4 | 16.1 | 0.00 | 0.00 | 0.00 | 76 | 1009.4 |
| 20260508231559 | 25 | 141 | 4.8 | 17.7 | 0.00 | 0.00 | 0.00 | 75 | 1009.4 |
| 20260508230106 | 25 | 142 | 3.2 | 11.3 | 0.00 | 0.00 | 0.00 | 76 | 1009.5 |
| 20260508224557 | 25 | 159 | 9.7 | 17.7 | 0.00 | 0.00 | 0.00 | 75 | 1009.6 |
| 20260508223055 | 25 | 136 | 8.0 | 14.5 | 0.00 | 0.00 | 0.00 | 74 | 1009.6 |
| 20260508221553 | 25 | 169 | 8.0 | 14.5 | 0.00 | 0.00 | 0.00 | 74 | 1009.6 |
| 20260508220053 | 25 | 131 | 4.8 | 14.5 | 0.00 | 0.00 | 0.00 | 73 | 1009.7 |
| 20260508214551 | 26 | 206 | 6.4 | 16.1 | 0.00 | 0.00 | 0.00 | 72 | 1009.8 |
| 20260508213050 | 25 | 184 | 8.0 | 14.5 | 0.00 | 0.00 | 0.00 | 72 | 1009.9 |
| 20260508211546 | 26 | 181 | 4.8 | 14.5 | 0.00 | 0.00 | 0.00 | 72 | 1010.1 |
| 20260508210045 | 25 | 143 | 9.7 | 17.7 | 0.00 | 0.00 | 0.00 | 73 | 1010.4 |
| 20260508204544 | 25 | 130 | 8.0 | 17.7 | 0.00 | 0.00 | 0.00 | 74 | 1010.6 |
| 20260508203042 | 25 | 133 | 4.8 | 12.9 | 0.00 | 0.00 | 0.00 | 74 | 1010.7 |
| 20260508201543 | 25 | 120 | 6.4 | 14.5 | 0.00 | 0.00 | 0.00 | 72 | 1010.9 |
| 20260508200041 | 25 | 129 | 4.8 | 14.5 | 0.00 | 0.00 | 0.00 | 71 | 1011.0 |
| 20260508194610 | 25 | 117 | 6.4 | 17.7 | 0.00 | 0.00 | 0.00 | 72 | 1011.0 |
| 20260508193035 | 25 | 131 | 4.8 | 16.1 | 0.00 | 0.00 | 0.00 | 71 | 1011.4 |
| 20260508191533 | 24 | 127 | 6.4 | 16.1 | 0.00 | 0.00 | 0.00 | 73 | 1011.6 |
| 20260508190030 | 24 | 115 | 6.4 | 12.9 | 0.00 | 0.00 | 0.00 | 74 | 1011.7 |
| 20260508184533 | 24 | 188 | 4.8 | 12.9 | 0.00 | 0.00 | 0.00 | 72 | 1011.9 |
| 20260508183027 | 24 | 134 | 6.4 | 14.5 | 0.00 | 0.00 | 0.00 | 71 | 1012.1 |
| 20260508181535 | 24 | 121 | 6.4 | 12.9 | 0.00 | 0.00 | 0.00 | 72 | 1012.4 |
| 20260508180025 | 23 | 130 | 6.4 | 16.1 | 0.00 | 0.00 | 0.00 | 73 | 1012.6 |
| 20260508174522 | 24 | 92 | 6.4 | 14.5 | 0.00 | 0.00 | 0.00 | 71 | 1012.7 |
| 20260508173034 | 25 | 190 | 3.2 | 8.0 | 0.00 | 0.00 | 0.00 | 71 | 1012.8 |
| 20260508171525 | 25 | 123 | 0.0 | 3.2 | 0.00 | 0.00 | 0.00 | 73 | 1013.0 |
| 20260508170017 | 24 | 264 | 1.6 | 6.4 | 0.00 | 0.00 | 0.00 | 73 | 1013.1 |
| 20260508164518 | 24 | 41 | 1.6 | 4.8 | 0.00 | 0.00 | 0.00 | 72 | 1013.2 |
| 20260508163019 | 23 | 203 | 1.6 | 8.0 | 0.00 | 0.00 | 0.00 | 73 | 1013.4 |
| 20260508161507 | 22 | 145 | 0.0 | 6.4 | 0.00 | 0.00 | 0.00 | 75 | 1013.7 |
| 20260508160004 | 21 | 168 | 1.6 | 4.8 | 0.00 | 0.00 | 0.00 | 77 | 1013.9 |
| 20260508154501 | 20 | 135 | 0.0 | 4.8 | 0.00 | 0.00 | 0.00 | 76 | 1014.1 |
| 20260508153059 | 20 | 169 | 0.0 | 4.8 | 0.00 | 0.00 | 0.00 | 75 | 1014.4 |
| 20260508151605 | 18 | 144 | 1.6 | 4.8 | 0.00 | 0.00 | 0.00 | 77 | 1014.6 |
| 20260508150051 | 17 | 200 | 3.2 | 8.0 | 0.00 | 0.00 | 0.00 | 78 | 1014.8 |
| 20260508144549 | 17 | 172 | 0.0 | 6.4 | 0.00 | 0.00 | 0.00 | 80 | 1014.7 |
| 20260508143048 | 16 | 107 | 3.2 | 6.4 | 0.00 | 0.00 | 0.00 | 81 | 1014.6 |
| 20260508141542 | 16 | 84 | 3.2 | 9.7 | 0.00 | 0.00 | 0.00 | 82 | 1014.7 |
| 20260508140041 | 16 | 77 | 4.8 | 11.3 | 0.00 | 0.00 | 0.00 | 82 | 1014.8 |
| 20260508134540 | 16 | 73 | 3.2 | 9.7 | 0.00 | 0.00 | 0.00 | 83 | 1014.7 |
| 20260508133054 | 16 | 72 | 6.4 | 14.5 | 0.00 | 0.00 | 0.00 | 82 | 1014.7 |
| 20260508131539 | 15 | 41 | 4.8 | 8.0 | 0.00 | 0.00 | 0.00 | 83 | 1014.8 |
| 20260508130034 | 15 | 39 | 3.2 | 8.0 | 0.00 | 0.00 | 0.00 | 83 | 1014.8 |
| 20260508124533 | 15 | 59 | 4.8 | 9.7 | 0.00 | 0.00 | 0.00 | 84 | 1015.0 |
| 20260508123048 | 15 | 359 | 4.8 | 11.3 | 0.00 | 0.00 | 0.00 | 84 | 1015.1 |
| 20260508121531 | 15 | 1 | 6.4 | 11.3 | 0.00 | 0.00 | 0.00 | 85 | 1014.7 |
| 20260508120030 | 15 | 38 | 4.8 | 9.7 | 0.00 | 0.00 | 0.00 | 85 | 1015.1 |
| 20260508114529 | 15 | 22 | 3.2 | 8.0 | 0.00 | 0.00 | 0.00 | 84 | 1015.3 |
| 20260508113029 | 15 | 18 | 1.6 | 4.8 | 0.00 | 0.00 | 0.00 | 81 | 1015.4 |
| 20260508111527 | 15 | 25 | 1.6 | 8.0 | 0.00 | 0.00 | 0.00 | 81 | 1015.5 |
| 20260508110027 | 15 | 17 | 3.2 | 9.7 | 0.00 | 0.00 | 0.00 | 81 | 1015.4 |
| 20260508104526 | 15 | 306 | 3.2 | 12.9 | 0.00 | 0.00 | 0.00 | 81 | 1015.2 |
| 20260508103025 | 15 | 22 | 8.0 | 16.1 | 0.00 | 0.00 | 0.00 | 81 | 1015.2 |
| 20260508101524 | 15 | 20 | 6.4 | 12.9 | 0.00 | 0.00 | 0.00 | 82 | 1015.1 |
| 20260508100025 | 15 | 347 | 4.8 | 9.7 | 0.00 | 0.00 | 0.00 | 82 | 1014.9 |
| 20260508094523 | 15 | 27 | 3.2 | 9.7 | 0.00 | 0.00 | 0.00 | 83 | 1015.2 |
| 20260508093025 | 15 | 356 | 3.2 | 9.7 | 0.00 | 0.00 | 0.00 | 83 | 1015.3 |
| 20260508091526 | 15 | 356 | 1.6 | 4.8 | 0.00 | 0.00 | 0.00 | 83 | 1015.4 |
| 20260508090022 | 15 | 314 | 1.6 | 3.2 | 0.00 | 0.00 | 0.00 | 82 | 1015.2 |
| 20260508084517 | 15 | 38 | 1.6 | 4.8 | 0.00 | 0.00 | 0.00 | 79 | 1015.0 |
| 20260508083117 | 15 | 28 | 0.0 | 4.8 | 0.00 | 0.00 | 0.00 | 79 | 1015.2 |
| 20260508081521 | 15 | 45 | 0.0 | 3.2 | 0.00 | 0.00 | 0.00 | 79 | 1015.4 |
| 20260508080016 | 15 | 63 | 0.0 | 1.6 | 0.00 | 0.00 | 0.00 | 78 | 1015.4 |
| 20260508074514 | 15 | 63 | 0.0 | 4.8 | 0.00 | 0.00 | 0.00 | 79 | 1015.3 |
| 20260508073015 | 15 | 63 | 3.2 | 8.0 | 0.00 | 0.00 | 0.00 | 78 | 1015.4 |
| 20260508071524 | 15 | 22 | 4.8 | 12.9 | 0.00 | 0.00 | 0.00 | 78 | 1015.4 |
| 20260508070012 | 15 | 56 | 4.8 | 14.5 | 0.00 | 0.00 | 0.00 | 78 | 1015.5 |
| 20260508064511 | 15 | 53 | 6.4 | 9.7 | 0.00 | 0.00 | 0.00 | 79 | 1015.3 |
| 20260508063007 | 15 | 15 | 3.2 | 11.3 | 0.00 | 0.00 | 0.00 | 78 | 1016.0 |
| 20260508061512 | 15 | 3 | 3.2 | 8.0 | 0.00 | 0.00 | 0.00 | 78 | 1016.3 |
| 20260508060005 | 15 | 64 | 4.8 | 9.7 | 0.00 | 0.00 | 0.00 | 78 | 1016.1 |
| 20260508054504 | 15 | 58 | 4.8 | 9.7 | 0.00 | 0.00 | 0.00 | 77 | 1015.8 |
| 20260508053003 | 15 | 60 | 4.8 | 9.7 | 0.00 | 0.00 | 0.00 | 77 | 1016.4 |
| 20260508051601 | 15 | 349 | 4.8 | 8.0 | 0.00 | 0.00 | 0.00 | 78 | 1016.2 |
| 20260508050059 | 15 | 28 | 4.8 | 12.9 | 0.00 | 0.00 | 0.00 | 78 | 1015.9 |
| 20260508044607 | 15 | 352 | 4.8 | 16.1 | 0.00 | 0.00 | 0.00 | 77 | 1016.2 |
| 20260508043111 | 15 | 323 | 3.2 | 8.0 | 0.00 | 0.00 | 0.00 | 78 | 1016.0 |
| 20260508041556 | 15 | 53 | 6.4 | 9.7 | 0.00 | 0.00 | 0.00 | 77 | 1015.7 |
| 20260508040100 | 15 | 30 | 1.6 | 6.4 | 0.00 | 0.00 | 0.00 | 76 | 1016.2 |